Voltar ao catálogo

STARLINK-5295

AtivoComunicaçõesVLEO
NORAD 55306·PAYLOAD·🇺🇸 United States

Lançado Jan 19, 2023 de Vandenberg Space Force Base

Loading…

Próximas Passagens (próximas 24 horas)

TLE

AtualizadoSource: CelesTrak SupGP

Época: Sep 14, 2026, 21:09 UTC

1 55306C 23010AP  26257.88173611  .00057028  00000+0  47787-2 0  2575
2 55306  69.9992 247.5657 0003944 259.9410 260.3198 14.98303254    10

Acompanhe STARLINK-5295 em tempo real com AllMySat

Download on the App Store